| time (UTC) | temp C | wind direction | speed KPH | gust KPH | rain 1hr cm | rain 24hr cm | rain mn cm | humidity % | barometer mb |
| 20260505112004 | 12 | 154 | 1.6 | 3.2 | 0.00 | 0.00 | 0.00 | 88 | 1017.5 |
| 20260505111505 | 12 | 145 | 0.0 | 0.0 | 0.00 | 0.00 | 0.00 | 87 | 1017.5 |
| 20260505111004 | 11 | 145 | 0.0 | 0.0 | 0.00 | 0.00 | 0.00 | 88 | 1017.4 |
| 20260505110505 | 11 | 123 | 0.0 | 0.0 | 0.00 | 0.00 | 0.00 | 89 | 1017.3 |
| 20260505102004 | 10 | 128 | 0.0 | 0.0 | 0.00 | 0.00 | 0.00 | 88 | 1016.9 |
| 20260505101504 | 11 | 128 | 0.0 | 0.0 | 0.00 | 0.00 | 0.00 | 87 | 1016.9 |
| 20260505101004 | 11 | 128 | 0.0 | 0.0 | 0.00 | 0.00 | 0.00 | 87 | 1016.9 |
| 20260505100504 | 11 | 128 | 0.0 | 0.0 | 0.00 | 0.00 | 0.00 | 87 | 1016.8 |
| 20260505100004 | 11 | 128 | 0.0 | 0.0 | 0.00 | 0.00 | 0.00 | 87 | 1016.8 |
| 20260505095504 | 11 | 128 | 0.0 | 0.0 | 0.00 | 0.00 | 0.00 | 87 | 1016.8 |
| 20260505095004 | 11 | 128 | 0.0 | 0.0 | 0.00 | 0.00 | 0.00 | 86 | 1016.7 |
| 20260505094504 | 11 | 128 | 0.0 | 0.0 | 0.00 | 0.00 | 0.00 | 86 | 1016.7 |
| 20260505094004 | 11 | 128 | 0.0 | 0.0 | 0.00 | 0.00 | 0.00 | 86 | 1016.7 |
| 20260505093504 | 11 | 128 | 0.0 | 0.0 | 0.00 | 0.00 | 0.00 | 86 | 1016.7 |
| 20260505093004 | 11 | 128 | 0.0 | 0.0 | 0.00 | 0.00 | 0.00 | 86 | 1016.6 |
| 20260505092504 | 11 | 128 | 0.0 | 0.0 | 0.00 | 0.00 | 0.00 | 85 | 1016.6 |
| 20260505092004 | 11 | 128 | 0.0 | 0.0 | 0.00 | 0.00 | 0.00 | 85 | 1016.5 |
| 20260505091504 | 11 | 128 | 0.0 | 0.0 | 0.00 | 0.00 | 0.00 | 85 | 1016.5 |
| 20260505091004 | 11 | 128 | 0.0 | 1.6 | 0.00 | 0.00 | 0.00 | 84 | 1016.5 |
| 20260505090504 | 11 | 128 | 1.6 | 3.2 | 0.00 | 0.00 | 0.00 | 84 | 1016.4 |
| 20260505090004 | 11 | 128 | 1.6 | 3.2 | 0.00 | 0.00 | 0.00 | 84 | 1016.5 |
| 20260505085504 | 11 | 128 | 1.6 | 3.2 | 0.00 | 0.00 | 0.00 | 83 | 1016.5 |
| 20260505085004 | 11 | 128 | 0.0 | 1.6 | 0.00 | 0.00 | 0.00 | 83 | 1016.4 |
| 20260505084504 | 11 | 128 | 0.0 | 1.6 | 0.00 | 0.00 | 0.00 | 82 | 1016.3 |
| 20260505084004 | 12 | 128 | 0.0 | 0.0 | 0.00 | 0.00 | 0.00 | 82 | 1016.3 |
| 20260505083504 | 12 | 128 | 0.0 | 0.0 | 0.00 | 0.00 | 0.00 | 81 | 1016.3 |
| 20260505083005 | 12 | 128 | 0.0 | 0.0 | 0.00 | 0.00 | 0.00 | 80 | 1016.3 |
| 20260505082504 | 12 | 128 | 0.0 | 0.0 | 0.00 | 0.00 | 0.00 | 80 | 1016.4 |
| 20260505082004 | 12 | 128 | 0.0 | 0.0 | 0.00 | 0.00 | 0.00 | 80 | 1016.4 |
| 20260505081505 | 12 | 128 | 0.0 | 0.0 | 0.00 | 0.00 | 0.00 | 79 | 1016.3 |
| 20260505081004 | 12 | 128 | 0.0 | 0.0 | 0.00 | 0.00 | 0.00 | 79 | 1016.3 |
| 20260505080503 | 12 | 128 | 0.0 | 0.0 | 0.00 | 0.00 | 0.00 | 79 | 1016.3 |
| 20260505075503 | 12 | 128 | 1.6 | 3.2 | 0.00 | 0.00 | 0.00 | 78 | 1016.1 |
| 20260505075004 | 12 | 128 | 1.6 | 3.2 | 0.00 | 0.00 | 0.00 | 78 | 1016.1 |
| 20260505074005 | 12 | 128 | 1.6 | 3.2 | 0.00 | 0.00 | 0.00 | 78 | 1016.0 |
| 20260505073504 | 12 | 136 | 1.6 | 4.8 | 0.00 | 0.00 | 0.00 | 77 | 1016.0 |
| 20260505073004 | 13 | 129 | 3.2 | 4.8 | 0.00 | 0.00 | 0.00 | 77 | 1016.0 |
| 20260505072504 | 13 | 132 | 3.2 | 4.8 | 0.00 | 0.00 | 0.00 | 76 | 1016.0 |
| 20260505072004 | 13 | 142 | 1.6 | 3.2 | 0.00 | 0.00 | 0.00 | 75 | 1016.1 |
| 20260505071504 | 13 | 142 | 0.0 | 1.6 | 0.00 | 0.00 | 0.00 | 74 | 1016.0 |
| 20260505070505 | 14 | 136 | 1.6 | 3.2 | 0.00 | 0.00 | 0.00 | 73 | 1016.0 |
| 20260505070005 | 14 | 142 | 1.6 | 3.2 | 0.00 | 0.00 | 0.00 | 72 | 1015.9 |
| 20260505065504 | 14 | 134 | 1.6 | 4.8 | 0.00 | 0.00 | 0.00 | 72 | 1015.9 |
| 20260505065004 | 14 | 144 | 3.2 | 8.0 | 0.00 | 0.00 | 0.00 | 72 | 1015.9 |
| 20260505064504 | 15 | 139 | 3.2 | 4.8 | 0.00 | 0.00 | 0.00 | 71 | 1016.0 |
| 20260505064003 | 15 | 132 | 3.2 | 4.8 | 0.00 | 0.00 | 0.00 | 71 | 1016.0 |
| 20260505063504 | 15 | 124 | 3.2 | 4.8 | 0.00 | 0.00 | 0.00 | 71 | 1015.9 |
| 20260505062004 | 15 | 132 | 3.2 | 4.8 | 0.00 | 0.00 | 0.00 | 70 | 1015.8 |
| 20260505061504 | 15 | 137 | 3.2 | 4.8 | 0.00 | 0.00 | 0.00 | 70 | 1015.9 |
| 20260505061004 | 15 | 126 | 1.6 | 4.8 | 0.00 | 0.00 | 0.00 | 70 | 1015.9 |
| 20260505060503 | 15 | 130 | 3.2 | 4.8 | 0.00 | 0.00 | 0.00 | 69 | 1015.9 |
| 20260505060004 | 15 | 164 | 3.2 | 8.0 | 0.00 | 0.00 | 0.00 | 69 | 1016.0 |
| 20260505055503 | 15 | 138 | 1.6 | 12.9 | 0.00 | 0.00 | 0.00 | 69 | 1016.0 |
| 20260505055004 | 15 | 136 | 3.2 | 4.8 | 0.00 | 0.00 | 0.00 | 69 | 1016.0 |
| 20260505054504 | 16 | 123 | 3.2 | 4.8 | 0.00 | 0.00 | 0.00 | 69 | 1016.0 |
| 20260505054004 | 16 | 141 | 3.2 | 4.8 | 0.00 | 0.00 | 0.00 | 68 | 1016.1 |
| 20260505053504 | 16 | 154 | 3.2 | 4.8 | 0.00 | 0.00 | 0.00 | 67 | 1016.1 |
| 20260505053004 | 16 | 130 | 3.2 | 4.8 | 0.00 | 0.00 | 0.00 | 67 | 1016.1 |
| 20260505052504 | 16 | 136 | 4.8 | 9.7 | 0.00 | 0.00 | 0.00 | 67 | 1016.2 |
| 20260505052004 | 16 | 156 | 1.6 | 4.8 | 0.00 | 0.00 | 0.00 | 67 | 1016.2 |
| 20260505051504 | 16 | 138 | 3.2 | 14.5 | 0.00 | 0.00 | 0.00 | 67 | 1016.3 |
| 20260505051004 | 16 | 144 | 4.8 | 11.3 | 0.00 | 0.00 | 0.00 | 67 | 1016.2 |
| 20260505050505 | 16 | 144 | 3.2 | 11.3 | 0.00 | 0.00 | 0.00 | 67 | 1016.3 |
| 20260505041503 | 17 | 141 | 4.8 | 11.3 | 0.00 | 0.00 | 0.00 | 66 | 1016.3 |
| 20260505041005 | 17 | 167 | 4.8 | 9.7 | 0.00 | 0.00 | 0.00 | 66 | 1016.3 |
| 20260505040504 | 17 | 132 | 4.8 | 11.3 | 0.00 | 0.00 | 0.00 | 66 | 1016.3 |
| 20260505040004 | 17 | 140 | 4.8 | 4.8 | 0.00 | 0.00 | 0.00 | 65 | 1016.3 |
| 20260505035504 | 17 | 138 | 4.8 | 9.7 | 0.00 | 0.00 | 0.00 | 65 | 1016.4 |
| 20260505035004 | 17 | 163 | 6.4 | 11.3 | 0.00 | 0.00 | 0.00 | 65 | 1016.3 |
| 20260505034504 | 17 | 160 | 8.0 | 16.1 | 0.00 | 0.00 | 0.00 | 64 | 1016.3 |
| 20260505034004 | 17 | 136 | 4.8 | 12.9 | 0.00 | 0.00 | 0.00 | 64 | 1016.3 |
| 20260505033505 | 17 | 135 | 3.2 | 11.3 | 0.00 | 0.00 | 0.00 | 63 | 1016.2 |
| 20260505033004 | 17 | 139 | 4.8 | 9.7 | 0.00 | 0.00 | 0.00 | 63 | 1016.3 |
| 20260505032504 | 17 | 158 | 4.8 | 12.9 | 0.00 | 0.00 | 0.00 | 63 | 1016.2 |
| 20260505032005 | 17 | 141 | 4.8 | 11.3 | 0.00 | 0.00 | 0.00 | 63 | 1016.2 |
| 20260505030504 | 18 | 183 | 1.6 | 9.7 | 0.00 | 0.00 | 0.00 | 62 | 1016.3 |
| 20260505030004 | 18 | 146 | 4.8 | 11.3 | 0.00 | 0.00 | 0.00 | 62 | 1016.3 |
| 20260505025504 | 18 | 151 | 4.8 | 11.3 | 0.00 | 0.00 | 0.00 | 62 | 1016.3 |
| 20260505025004 | 18 | 136 | 4.8 | 14.5 | 0.00 | 0.00 | 0.00 | 62 | 1016.3 |
| 20260505023504 | 18 | 143 | 4.8 | 12.9 | 0.00 | 0.00 | 0.00 | 61 | 1016.3 |
| 20260505023003 | 18 | 152 | 6.4 | 16.1 | 0.00 | 0.00 | 0.00 | 60 | 1016.2 |
| 20260505022504 | 18 | 157 | 8.0 | 16.1 | 0.00 | 0.00 | 0.00 | 60 | 1016.2 |
| 20260505021504 | 19 | 139 | 9.7 | 19.3 | 0.00 | 0.00 | 0.00 | 60 | 1016.2 |
| 20260505021004 | 19 | 134 | 8.0 | 19.3 | 0.00 | 0.00 | 0.00 | 60 | 1016.2 |
| 20260505020504 | 19 | 135 | 4.8 | 12.9 | 0.00 | 0.00 | 0.00 | 60 | 1016.1 |
| 20260505020004 | 19 | 159 | 8.0 | 14.5 | 0.00 | 0.00 | 0.00 | 59 | 1016.1 |
| 20260505015504 | 19 | 176 | 4.8 | 16.1 | 0.00 | 0.00 | 0.00 | 57 | 1016.0 |
| 20260505015003 | 19 | 132 | 8.0 | 14.5 | 0.00 | 0.00 | 0.00 | 56 | 1015.9 |
| 20260505014504 | 19 | 135 | 4.8 | 9.7 | 0.00 | 0.00 | 0.00 | 55 | 1015.9 |
| 20260505013504 | 20 | 137 | 8.0 | 16.1 | 0.00 | 0.00 | 0.00 | 52 | 1015.7 |
| 20260505013004 | 20 | 130 | 8.0 | 14.5 | 0.00 | 0.00 | 0.00 | 50 | 1015.6 |
| 20260505012505 | 20 | 139 | 8.0 | 16.1 | 0.00 | 0.00 | 0.00 | 49 | 1015.5 |
| 20260505011504 | 19 | 142 | 3.2 | 4.8 | 0.00 | 0.00 | 0.00 | 49 | 1015.3 |
| 20260505011004 | 20 | 133 | 3.2 | 4.8 | 0.00 | 0.00 | 0.00 | 48 | 1015.2 |
| 20260505010505 | 20 | 150 | 3.2 | 4.8 | 0.00 | 0.00 | 0.00 | 48 | 1015.2 |
| 20260505010004 | 20 | 131 | 3.2 | 4.8 | 0.00 | 0.00 | 0.00 | 48 | 1015.1 |
| 20260505005505 | 20 | 123 | 3.2 | 4.8 | 0.00 | 0.00 | 0.00 | 47 | 1015.0 |
| 20260505005004 | 20 | 135 | 3.2 | 4.8 | 0.00 | 0.00 | 0.00 | 47 | 1015.0 |
| 20260505004504 | 20 | 149 | 3.2 | 4.8 | 0.00 | 0.00 | 0.00 | 46 | 1014.9 |
| 20260505004004 | 20 | 133 | 1.6 | 4.8 | 0.00 | 0.00 | 0.00 | 46 | 1014.8 |
| 20260505003504 | 20 | 137 | 3.2 | 8.0 | 0.00 | 0.00 | 0.00 | 45 | 1014.8 |
| 20260505003004 | 21 | 128 | 3.2 | 4.8 | 0.00 | 0.00 | 0.00 | 45 | 1014.8 |
| 20260505002504 | 21 | 127 | 3.2 | 4.8 | 0.00 | 0.00 | 0.00 | 44 | 1014.7 |
| 20260505002004 | 21 | 151 | 3.2 | 4.8 | 0.00 | 0.00 | 0.00 | 44 | 1014.7 |
| 20260505001504 | 21 | 135 | 1.6 | 4.8 | 0.00 | 0.00 | 0.00 | 43 | 1014.7 |
| 20260505000504 | 22 | 136 | 3.2 | 4.8 | 0.00 | 0.00 | 0.00 | 42 | 1014.6 |
| 20260504235004 | 22 | 138 | 3.2 | 4.8 | 0.00 | 0.00 | 0.00 | 41 | 1014.4 |
| 20260504234505 | 22 | 170 | 3.2 | 11.3 | 0.00 | 0.00 | 0.00 | 39 | 1014.4 |
| 20260504234004 | 23 | 166 | 1.6 | 4.8 | 0.00 | 0.00 | 0.00 | 39 | 1014.3 |
| 20260504232004 | 23 | 135 | 3.2 | 9.7 | 0.00 | 0.00 | 0.00 | 37 | 1014.2 |
| 20260504231504 | 23 | 134 | 4.8 | 11.3 | 0.00 | 0.00 | 0.00 | 37 | 1014.1 |
| 20260504231004 | 24 | 184 | 4.8 | 11.3 | 0.00 | 0.00 | 0.00 | 37 | 1014.0 |
| 20260504230005 | 24 | 137 | 4.8 | 14.5 | 0.00 | 0.00 | 0.00 | 35 | 1014.1 |
| 20260504225504 | 24 | 181 | 6.4 | 16.1 | 0.00 | 0.00 | 0.00 | 34 | 1014.1 |
| 20260504224004 | 25 | 153 | 6.4 | 12.9 | 0.00 | 0.00 | 0.00 | 34 | 1014.1 |
| 20260504223505 | 25 | 151 | 4.8 | 8.0 | 0.00 | 0.00 | 0.00 | 33 | 1014.0 |
| 20260504223004 | 25 | 154 | 3.2 | 11.3 | 0.00 | 0.00 | 0.00 | 33 | 1014.0 |
| 20260504222004 | 25 | 162 | 4.8 | 12.9 | 0.00 | 0.00 | 0.00 | 33 | 1014.1 |
| 20260504221004 | 26 | 150 | 6.4 | 12.9 | 0.00 | 0.00 | 0.00 | 30 | 1014.1 |
| 20260504220504 | 27 | 165 | 6.4 | 14.5 | 0.00 | 0.00 | 0.00 | 31 | 1014.1 |
| 20260504220004 | 27 | 114 | 3.2 | 8.0 | 0.00 | 0.00 | 0.00 | 29 | 1014.1 |
| 20260504215504 | 27 | 220 | 1.6 | 4.8 | 0.00 | 0.00 | 0.00 | 28 | 1014.0 |
| 20260504215004 | 27 | 104 | 3.2 | 4.8 | 0.00 | 0.00 | 0.00 | 28 | 1014.0 |
| 20260504214504 | 27 | 181 | 4.8 | 9.7 | 0.00 | 0.00 | 0.00 | 28 | 1014.0 |
| 20260504214003 | 27 | 295 | 4.8 | 8.0 | 0.00 | 0.00 | 0.00 | 29 | 1013.9 |
| 20260504213504 | 27 | 212 | 3.2 | 9.7 | 0.00 | 0.00 | 0.00 | 27 | 1013.9 |
| 20260504213004 | 27 | 238 | 3.2 | 4.8 | 0.00 | 0.00 | 0.00 | 30 | 1013.9 |
| 20260504212504 | 27 | 233 | 3.2 | 4.8 | 0.00 | 0.00 | 0.00 | 29 | 1014.0 |
| 20260504212004 | 27 | 172 | 4.8 | 11.3 | 0.00 | 0.00 | 0.00 | 28 | 1014.1 |
| 20260504211504 | 27 | 145 | 4.8 | 11.3 | 0.00 | 0.00 | 0.00 | 28 | 1014.0 |
| 20260504211004 | 27 | 149 | 3.2 | 12.9 | 0.00 | 0.00 | 0.00 | 28 | 1014.0 |
| 20260504210504 | 27 | 222 | 4.8 | 16.1 | 0.00 | 0.00 | 0.00 | 31 | 1014.0 |
| 20260504210004 | 27 | 171 | 4.8 | 14.5 | 0.00 | 0.00 | 0.00 | 27 | 1014.1 |
| 20260504205003 | 28 | 249 | 3.2 | 8.0 | 0.00 | 0.00 | 0.00 | 28 | 1014.3 |
| 20260504204004 | 28 | 304 | 3.2 | 12.9 | 0.00 | 0.00 | 0.00 | 28 | 1014.3 |
| 20260504203003 | 27 | 181 | 4.8 | 12.9 | 0.00 | 0.00 | 0.00 | 29 | 1014.4 |
| 20260504202503 | 27 | 240 | 3.2 | 9.7 | 0.00 | 0.00 | 0.00 | 27 | 1014.5 |
| 20260504202004 | 27 | 215 | 3.2 | 11.3 | 0.00 | 0.00 | 0.00 | 28 | 1014.6 |
| 20260504201504 | 27 | 214 | 4.8 | 16.1 | 0.00 | 0.00 | 0.00 | 28 | 1014.7 |
| 20260504201003 | 27 | 303 | 8.0 | 16.1 | 0.00 | 0.00 | 0.00 | 29 | 1014.7 |
| 20260504200004 | 27 | 224 | 4.8 | 14.5 | 0.00 | 0.00 | 0.00 | 26 | 1014.8 |
| 20260504195504 | 27 | 155 | 4.8 | 11.3 | 0.00 | 0.00 | 0.00 | 27 | 1014.8 |
| 20260504195004 | 27 | 158 | 3.2 | 11.3 | 0.00 | 0.00 | 0.00 | 29 | 1014.9 |
| 20260504194503 | 27 | 177 | 8.0 | 20.9 | 0.00 | 0.00 | 0.00 | 29 | 1014.9 |
| 20260504194004 | 27 | 275 | 3.2 | 9.7 | 0.00 | 0.00 | 0.00 | 26 | 1014.8 |
| 20260504193504 | 27 | 242 | 4.8 | 11.3 | 0.00 | 0.00 | 0.00 | 28 | 1014.9 |
| 20260504193003 | 27 | 214 | 4.8 | 12.9 | 0.00 | 0.00 | 0.00 | 28 | 1014.9 |
| 20260504192504 | 27 | 155 | 4.8 | 16.1 | 0.00 | 0.00 | 0.00 | 29 | 1014.9 |
| 20260504192004 | 27 | 152 | 6.4 | 19.3 | 0.00 | 0.00 | 0.00 | 30 | 1015.0 |
| 20260504191504 | 27 | 303 | 4.8 | 16.1 | 0.00 | 0.00 | 0.00 | 26 | 1015.2 |
| 20260504191004 | 27 | 224 | 3.2 | 9.7 | 0.00 | 0.00 | 0.00 | 29 | 1015.2 |
| 20260504190504 | 27 | 176 | 3.2 | 9.7 | 0.00 | 0.00 | 0.00 | 29 | 1015.3 |
| 20260504190003 | 27 | 189 | 4.8 | 9.7 | 0.00 | 0.00 | 0.00 | 30 | 1015.5 |
| 20260504185503 | 27 | 31 | 3.2 | 11.3 | 0.00 | 0.00 | 0.00 | 28 | 1015.6 |
| 20260504184003 | 26 | 162 | 4.8 | 12.9 | 0.00 | 0.00 | 0.00 | 32 | 1015.4 |
| 20260504183504 | 26 | 321 | 1.6 | 8.0 | 0.00 | 0.00 | 0.00 | 31 | 1015.6 |
| 20260504183005 | 26 | 229 | 3.2 | 12.9 | 0.00 | 0.00 | 0.00 | 29 | 1015.6 |
| 20260504182503 | 26 | 175 | 4.8 | 12.9 | 0.00 | 0.00 | 0.00 | 30 | 1015.8 |
| 20260504182004 | 26 | 174 | 8.0 | 12.9 | 0.00 | 0.00 | 0.00 | 33 | 1015.8 |
| 20260504181503 | 26 | 184 | 3.2 | 14.5 | 0.00 | 0.00 | 0.00 | 34 | 1015.8 |
| 20260504181004 | 26 | 289 | 3.2 | 14.5 | 0.00 | 0.00 | 0.00 | 32 | 1015.8 |
| 20260504180504 | 26 | 241 | 3.2 | 11.3 | 0.00 | 0.00 | 0.00 | 31 | 1015.8 |
| 20260504180004 | 26 | 235 | 4.8 | 11.3 | 0.00 | 0.00 | 0.00 | 33 | 1015.8 |
| 20260504175503 | 26 | 137 | 4.8 | 12.9 | 0.00 | 0.00 | 0.00 | 30 | 1015.7 |
| 20260504175004 | 26 | 175 | 4.8 | 9.7 | 0.00 | 0.00 | 0.00 | 31 | 1015.8 |
| 20260504174503 | 26 | 254 | 6.4 | 14.5 | 0.00 | 0.00 | 0.00 | 32 | 1016.0 |
| 20260504174003 | 26 | 124 | 4.8 | 14.5 | 0.00 | 0.00 | 0.00 | 32 | 1016.0 |
| 20260504173504 | 26 | 250 | 8.0 | 14.5 | 0.00 | 0.00 | 0.00 | 34 | 1016.2 |
| 20260504173004 | 26 | 214 | 3.2 | 16.1 | 0.00 | 0.00 | 0.00 | 34 | 1016.2 |
| 20260504171004 | 26 | 246 | 3.2 | 8.0 | 0.00 | 0.00 | 0.00 | 35 | 1016.5 |
| 20260504170505 | 25 | 306 | 4.8 | 12.9 | 0.00 | 0.00 | 0.00 | 37 | 1016.6 |
| 20260504151004 | 22 | 231 | 3.2 | 11.3 | 0.00 | 0.00 | 0.00 | 50 | 1017.7 |
| 20260504150504 | 22 | 165 | 4.8 | 9.7 | 0.00 | 0.00 | 0.00 | 50 | 1017.8 |
| 20260504141004 | 20 | 251 | 1.6 | 9.7 | 0.00 | 0.00 | 0.00 | 58 | 1017.9 |
| 20260504140505 | 20 | 37 | 1.6 | 4.8 | 0.00 | 0.00 | 0.00 | 58 | 1018.0 |
| 20260504130504 | 17 | 357 | 1.6 | 8.0 | 0.00 | 0.00 | 0.00 | 66 | 1018.1 |